When you browse on this site, cookies collect data to enhance your experience and personalize the content and advertising you see.
Visit our Privacy Policy to learn more. By continuing to use the site, you agree to this use of cookies and data.
  • en France
  • Liste des pays
  • À 7 jours
  • Température de l'eau
  • Carte météo
  • Widgets météo
  • user-avatar
    Se connecter

    Météo par heure à Shkodёr

    Ce jour, 6 Juin, Samedi

    Heure Température Précipitation Vent Pression Humidité
    00:00 +16°C° 0 mm 3 m/s 732 mmHg 65%
    01:00 +15°C° 0 mm 4 m/s 732 mmHg 70%
    02:00 +15°C° 0 mm 4 m/s 732 mmHg 71%
    03:00 +16°C° 0 mm 3 m/s 731 mmHg 73%
    04:00 +16°C° 0 mm 3 m/s 731 mmHg 74%
    05:00 +17°C° 0 mm 3 m/s 732 mmHg 74%
    06:00 +18°C° 0 mm 2 m/s 732 mmHg 73%
    07:00 +19°C° 0 mm 3 m/s 732 mmHg 76%
    08:00 +21°C° 0.5 mm 2 m/s 733 mmHg 72%
    09:00 +23°C° 0.5 mm 2 m/s 733 mmHg 68%
    10:00 +25°C° 0.5 mm 2 m/s 733 mmHg 65%
    11:00 +24°C° 1.5 mm 2 m/s 733 mmHg 66%
    12:00 +24°C° 1.5 mm 2 m/s 733 mmHg 66%
    13:00 +24°C° 1.5 mm 2 m/s 733 mmHg 67%
    14:00 +23°C° 1 mm 2 m/s 733 mmHg 73%
    15:00 +21°C° 1 mm 2 m/s 733 mmHg 78%
    16:00 +21°C° 1 mm 1 m/s 733 mmHg 84%
    17:00 +20°C° 0.3 mm 1 m/s 733 mmHg 86%
    18:00 +19°C° 0.3 mm 1 m/s 733 mmHg 87%
    19:00 +19°C° 0.3 mm 1 m/s 733 mmHg 89%
    20:00 +19°C° 0.1 mm 1 m/s 734 mmHg 89%
    21:00 +18°C° 0.1 mm 1 m/s 734 mmHg 88%
    22:00 +18°C° 0.1 mm 1 m/s 734 mmHg 88%
    23:00 +18°C° 0.1 mm 1 m/s 735 mmHg 89%

    Demain, 7 Juin, Dimanche

    Heure Température Précipitation Vent Pression Humidité
    00:00 +18°C° 0.1 mm 1 m/s 735 mmHg 90%
    01:00 +16°C° 0.1 mm 1 m/s 735 mmHg 92%
    02:00 +16°C° 0 mm 1 m/s 735 mmHg 93%
    03:00 +15°C° 0 mm 1 m/s 735 mmHg 94%
    04:00 +15°C° 0 mm 1 m/s 735 mmHg 94%
    05:00 +16°C° 0 mm 1 m/s 735 mmHg 92%
    06:00 +18°C° 0 mm 1 m/s 735 mmHg 89%
    07:00 +20°C° 0 mm 1 m/s 735 mmHg 86%
    08:00 +21°C° 0 mm 1 m/s 735 mmHg 81%
    09:00 +22°C° 0 mm 1 m/s 735 mmHg 76%
    10:00 +23°C° 0 mm 2 m/s 735 mmHg 71%
    11:00 +23°C° 0 mm 2 m/s 735 mmHg 70%
    12:00 +24°C° 0 mm 2 m/s 735 mmHg 70%
    13:00 +24°C° 0 mm 2 m/s 735 mmHg 69%
    14:00 +24°C° 0 mm 2 m/s 735 mmHg 70%
    15:00 +24°C° 0 mm 2 m/s 735 mmHg 70%
    16:00 +23°C° 0 mm 2 m/s 735 mmHg 71%
    17:00 +21°C° 0 mm 2 m/s 735 mmHg 76%
    18:00 +21°C° 0 mm 1 m/s 735 mmHg 82%
    19:00 +19°C° 0 mm 1 m/s 735 mmHg 88%
    20:00 +19°C° 0 mm 1 m/s 735 mmHg 88%
    21:00 +18°C° 0 mm 1 m/s 736 mmHg 88%
    22:00 +18°C° 0 mm 1 m/s 736 mmHg 89%
    23:00 +16°C° 0 mm 1 m/s 736 mmHg 88%

    Après-demain, 8 Juin, Lundi

    Heure Température Précipitation Vent Pression Humidité
    00:00 +16°C° 0 mm 1 m/s 736 mmHg 87%
    01:00 +16°C° 0 mm 1 m/s 736 mmHg 86%
    02:00 +16°C° 0 mm 1 m/s 735 mmHg 85%
    03:00 +16°C° 0 mm 1 m/s 735 mmHg 85%
    04:00 +16°C° 0 mm 1 m/s 735 mmHg 84%
    05:00 +18°C° 0 mm 1 m/s 735 mmHg 81%
    06:00 +20°C° 0 mm 1 m/s 735 mmHg 77%
    07:00 +20°C° 0 mm 0 m/s 736 mmHg 73%
    08:00 +23°C° 0.2 mm 1 m/s 736 mmHg 71%
    09:00 +24°C° 0.2 mm 1 m/s 736 mmHg 68%
    10:00 +25°C° 0.2 mm 2 m/s 736 mmHg 66%
    11:00 +25°C° 0.6 mm 2 m/s 735 mmHg 66%
    12:00 +25°C° 0.6 mm 2 m/s 735 mmHg 66%
    13:00 +25°C° 0.6 mm 3 m/s 735 mmHg 66%
    14:00 +25°C° 0.4 mm 2 m/s 735 mmHg 66%
    15:00 +25°C° 0.4 mm 2 m/s 735 mmHg 66%
    16:00 +25°C° 0.4 mm 2 m/s 735 mmHg 66%
    17:00 +23°C° 0.1 mm 2 m/s 735 mmHg 71%
    18:00 +22°C° 0.1 mm 1 m/s 735 mmHg 75%
    19:00 +21°C° 0.1 mm 1 m/s 735 mmHg 79%
    20:00 +20°C° 0 mm 1 m/s 735 mmHg 80%
    21:00 +19°C° 0 mm 1 m/s 736 mmHg 80%
    22:00 +19°C° 0 mm 1 m/s 736 mmHg 81%
    23:00 +18°C° 0 mm 1 m/s 736 mmHg 81%

    9 Juin, Mardi

    Heure Température Précipitation Vent Pression Humidité
    00:00 +18°C° 0 mm 1 m/s 736 mmHg 82%
    01:00 +18°C° 0 mm 1 m/s 736 mmHg 82%
    02:00 +18°C° 0 mm 1 m/s 736 mmHg 82%
    03:00 +18°C° 0 mm 1 m/s 735 mmHg 82%
    04:00 +18°C° 0 mm 1 m/s 735 mmHg 82%
    05:00 +19°C° 0 mm 1 m/s 736 mmHg 78%
    06:00 +21°C° 0 mm 1 m/s 736 mmHg 73%
    07:00 +21°C° 0 mm 0 m/s 736 mmHg 69%
    08:00 +24°C° 0.2 mm 1 m/s 736 mmHg 65%
    09:00 +25°C° 0.2 mm 1 m/s 736 mmHg 62%
    10:00 +26°C° 0.2 mm 1 m/s 736 mmHg 58%
    11:00 +27°C° 0.6 mm 2 m/s 736 mmHg 58%
    12:00 +27°C° 0.6 mm 2 m/s 735 mmHg 57%
    13:00 +27°C° 0.6 mm 2 m/s 735 mmHg 56%
    14:00 +27°C° 0.3 mm 2 m/s 735 mmHg 58%
    15:00 +26°C° 0.3 mm 2 m/s 735 mmHg 59%
    16:00 +26°C° 0.3 mm 2 m/s 735 mmHg 61%
    17:00 +24°C° 0.1 mm 2 m/s 735 mmHg 66%
    18:00 +23°C° 0.1 mm 1 m/s 735 mmHg 71%
    19:00 +21°C° 0.1 mm 1 m/s 735 mmHg 76%
    20:00 +21°C° 0 mm 1 m/s 736 mmHg 77%
    21:00 +20°C° 0 mm 1 m/s 736 mmHg 77%
    22:00 +19°C° 0 mm 1 m/s 736 mmHg 78%
    23:00 +19°C° 0.1 mm 1 m/s 736 mmHg 78%

    10 Juin, Mercredi

    Heure Température Précipitation Vent Pression Humidité
    00:00 +19°C° 0.1 mm 1 m/s 736 mmHg 78%
    01:00 +18°C° 0.1 mm 1 m/s 736 mmHg 79%
    02:00 +18°C° 0.3 mm 1 m/s 736 mmHg 80%
    03:00 +18°C° 0.3 mm 1 m/s 736 mmHg 81%
    04:00 +18°C° 0.3 mm 1 m/s 736 mmHg 83%
    05:00 +20°C° 0.1 mm 1 m/s 736 mmHg 79%
    06:00 +21°C° 0.1 mm 1 m/s 736 mmHg 74%
    07:00 +23°C° 0.1 mm 1 m/s 736 mmHg 70%
    08:00 +24°C° 0.1 mm 1 m/s 736 mmHg 66%
    09:00 +25°C° 0.1 mm 2 m/s 736 mmHg 62%
    10:00 +26°C° 0.1 mm 2 m/s 736 mmHg 58%
    11:00 +26°C° 0.2 mm 2 m/s 735 mmHg 58%
    12:00 +26°C° 0.2 mm 3 m/s 735 mmHg 57%
    13:00 +27°C° 0.2 mm 3 m/s 735 mmHg 56%
    14:00 +26°C° 0.1 mm 3 m/s 735 mmHg 58%
    15:00 +26°C° 0.1 mm 2 m/s 735 mmHg 59%
    16:00 +26°C° 0.1 mm 2 m/s 735 mmHg 60%
    17:00 +24°C° 0.1 mm 2 m/s 735 mmHg 67%
    18:00 +23°C° 0.1 mm 1 m/s 735 mmHg 73%
    19:00 +21°C° 0.1 mm 1 m/s 735 mmHg 79%
    20:00 +20°C° 0 mm 1 m/s 735 mmHg 80%
    21:00 +20°C° 0 mm 1 m/s 735 mmHg 80%
    22:00 +19°C° 0 mm 1 m/s 735 mmHg 81%
    23:00 +18°C° 0 mm 1 m/s 735 mmHg 81%

    11 Juin, Jeudi

    Heure Température Précipitation Vent Pression Humidité
    00:00 +18°C° 0 mm 1 m/s 735 mmHg 82%
    01:00 +18°C° 0 mm 1 m/s 735 mmHg 83%
    02:00 +18°C° 0.2 mm 1 m/s 735 mmHg 83%
    03:00 +16°C° 0.2 mm 1 m/s 734 mmHg 83%
    04:00 +16°C° 0.2 mm 1 m/s 734 mmHg 83%
    05:00 +18°C° 0.5 mm 1 m/s 734 mmHg 81%
    06:00 +20°C° 0.5 mm 1 m/s 734 mmHg 78%
    07:00 +21°C° 0.5 mm 1 m/s 734 mmHg 75%
    08:00 +22°C° 1.7 mm 1 m/s 734 mmHg 74%
    09:00 +21°C° 1.7 mm 2 m/s 734 mmHg 73%
    10:00 +23°C° 1.7 mm 2 m/s 734 mmHg 71%
    11:00 +22°C° 1.7 mm 3 m/s 734 mmHg 72%
    12:00 +22°C° 1.7 mm 3 m/s 733 mmHg 73%
    13:00 +22°C° 1.7 mm 3 m/s 733 mmHg 74%
    14:00 +22°C° 0.2 mm 3 m/s 733 mmHg 70%
    15:00 +22°C° 0.2 mm 3 m/s 733 mmHg 67%
    16:00 +22°C° 0.2 mm 3 m/s 733 mmHg 63%
    17:00 +20°C° 0 mm 2 m/s 733 mmHg 67%
    18:00 +19°C° 0 mm 2 m/s 733 mmHg 72%
    19:00 +19°C° 0 mm 1 m/s 733 mmHg 76%
    20:00 +18°C° 0 mm 1 m/s 733 mmHg 77%
    21:00 +16°C° 0 mm 1 m/s 733 mmHg 77%
    22:00 +16°C° 0 mm 1 m/s 733 mmHg 78%
    23:00 +16°C° 0 mm 1 m/s 733 mmHg 76%
    Voir plus